Time,TemperatureF,DewpointF,PressureIn,WindDirection,WindDirectionDegrees,WindSpeedMPH,WindSpeedGustMPH,Humidity,HourlyPrecipIn,Conditions,Clouds,dailyrainin,SoftwareType,DateUTC
2013-04-23 00:10:00,75.6,29.0,29.36,North,359,8.0,-999.0,18,-99.99,,,0.00,weatherlink.com 1.10,2013-04-23 07:10:00,
2013-04-23 00:25:00,72.3,31.0,29.37,North,357,2.0,-999.0,22,-99.99,,,0.00,weatherlink.com 1.10,2013-04-23 07:25:00,
2013-04-23 00:40:00,71.1,31.0,29.37,North,357,1.0,-999.0,23,-99.99,,,0.00,weatherlink.com 1.10,2013-04-23 07:40:00,
2013-04-23 00:55:00,70.3,32.0,29.37,NW,309,0.0,-999.0,24,-99.99,,,0.00,weatherlink.com 1.10,2013-04-23 07:55:00,
2013-04-23 01:10:00,70.3,30.0,29.36,WNW,287,0.0,-999.0,22,-99.99,,,0.00,weatherlink.com 1.10,2013-04-23 08:10:00,
2013-04-23 01:25:00,69.8,31.0,29.36,East,100,0.0,-999.0,24,-99.99,,,0.00,weatherlink.com 1.10,2013-04-23 08:25:00,
2013-04-23 01:40:00,69.1,34.0,29.37,West,265,0.0,-999.0,27,-99.99,,,0.00,weatherlink.com 1.10,2013-04-23 08:40:00,
2013-04-23 01:55:00,68.1,34.0,29.36,WSW,244,0.0,-999.0,28,-99.99,,,0.00,weatherlink.com 1.10,2013-04-23 08:55:00,
2013-04-23 02:10:00,66.9,32.0,29.36,SW,232,0.0,-999.0,27,-99.99,,,0.00,weatherlink.com 1.10,2013-04-23 09:10:00,
2013-04-23 02:25:00,67.3,29.0,29.36,WSW,254,0.0,-999.0,24,-99.99,,,0.00,weatherlink.com 1.10,2013-04-23 09:25:00,
2013-04-23 02:40:00,66.6,31.0,29.36,SSW,199,0.0,-999.0,27,-99.99,,,0.00,weatherlink.com 1.10,2013-04-23 09:40:00,
2013-04-23 02:55:00,66.0,31.0,29.36,SE,137,0.0,-999.0,27,-99.99,,,0.00,weatherlink.com 1.10,2013-04-23 09:55:00,
2013-04-23 03:10:00,66.3,27.0,29.36,SSE,152,0.0,-999.0,23,-99.99,,,0.00,weatherlink.com 1.10,2013-04-23 10:10:00,
2013-04-23 03:25:00,66.0,28.0,29.36,SE,124,0.0,-999.0,24,-99.99,,,0.00,weatherlink.com 1.10,2013-04-23 10:25:00,
2013-04-23 03:40:00,65.6,28.0,29.36,ESE,114,0.0,-999.0,24,-99.99,,,0.00,weatherlink.com 1.10,2013-04-23 10:40:00,
2013-04-23 03:55:00,65.6,27.0,29.36,ENE,59,0.0,-999.0,23,-99.99,,,0.00,weatherlink.com 1.10,2013-04-23 10:55:00,
2013-04-23 04:10:00,64.8,27.0,29.35,ESE,123,0.0,-999.0,24,-99.99,,,0.00,weatherlink.com 1.10,2013-04-23 11:10:00,
2013-04-23 04:25:00,65.0,27.0,29.36,ENE,66,0.0,-999.0,24,-99.99,,,0.00,weatherlink.com 1.10,2013-04-23 11:25:00,
2013-04-23 04:40:00,65.0,27.0,29.36,SE,131,0.0,-999.0,24,-99.99,,,0.00,weatherlink.com 1.10,2013-04-23 11:40:00,
2013-04-23 04:55:00,64.7,26.0,29.36,ESE,114,0.0,-999.0,23,-99.99,,,0.00,weatherlink.com 1.10,2013-04-23 11:55:00,
2013-04-23 05:10:00,64.0,27.0,29.36,ESE,119,0.0,-999.0,25,-99.99,,,0.00,weatherlink.com 1.10,2013-04-23 12:10:00,
2013-04-23 05:25:00,64.5,29.0,29.37,WSW,239,0.0,-999.0,26,-99.99,,,0.00,weatherlink.com 1.10,2013-04-23 12:25:00,
2013-04-23 05:40:00,62.7,28.0,29.38,NNE,28,0.0,-999.0,27,-99.99,,,0.00,weatherlink.com 1.10,2013-04-23 12:40:00,
2013-04-23 05:55:00,62.1,33.0,29.39,NE,37,3.0,-999.0,34,-99.99,,,0.00,weatherlink.com 1.10,2013-04-23 12:55:00,
2013-04-23 06:10:00,62.7,31.0,29.40,North,359,0.0,-999.0,31,-99.99,,,0.00,weatherlink.com 1.10,2013-04-23 13:10:00,
2013-04-23 06:25:00,62.9,31.0,29.41,North,359,0.0,-999.0,30,-99.99,,,0.00,weatherlink.com 1.10,2013-04-23 13:25:00,
2013-04-23 06:40:00,63.2,31.0,29.41,North,357,0.0,-999.0,30,-99.99,,,0.00,weatherlink.com 1.10,2013-04-23 13:40:00,
2013-04-23 06:55:00,63.2,36.0,29.43,North,357,0.0,-999.0,36,-99.99,,,0.00,weatherlink.com 1.10,2013-04-23 13:55:00,
2013-04-23 07:10:00,63.7,37.0,29.43,North,359,0.0,-999.0,37,-99.99,,,0.00,weatherlink.com 1.10,2013-04-23 14:10:00,
2013-04-23 07:25:00,64.3,37.0,29.44,North,359,0.0,-999.0,37,-99.99,,,0.00,weatherlink.com 1.10,2013-04-23 14:25:00,
2013-04-23 07:40:00,65.5,34.0,29.44,North,359,0.0,-999.0,31,-99.99,,,0.00,weatherlink.com 1.10,2013-04-23 14:40:00,
2013-04-23 07:55:00,68.9,33.0,29.45,North,359,0.0,-999.0,27,-99.99,,,0.00,weatherlink.com 1.10,2013-04-23 14:55:00,
2013-04-23 08:10:00,71.8,34.0,29.46,North,359,2.0,-999.0,25,-99.99,,,0.00,weatherlink.com 1.10,2013-04-23 15:10:00,
2013-04-23 08:26:00,73.7,38.0,29.46,North,357,1.0,-999.0,27,-99.99,,,0.00,weatherlink.com 1.10,2013-04-23 15:26:00,
2013-04-23 08:41:00,74.4,39.0,29.47,North,359,1.0,-999.0,28,-99.99,,,0.00,weatherlink.com 1.10,2013-04-23 15:41:00,
2013-04-23 08:56:00,75.3,40.0,29.48,NNW,335,1.0,-999.0,28,-99.99,,,0.00,weatherlink.com 1.10,2013-04-23 15:56:00,
2013-04-23 09:11:00,77.0,40.0,29.48,North,352,0.0,-999.0,26,-99.99,,,0.00,weatherlink.com 1.10,2013-04-23 16:11:00,
2013-04-23 09:26:00,78.5,40.0,29.49,North,357,0.0,-999.0,25,-99.99,,,0.00,weatherlink.com 1.10,2013-04-23 16:26:00,
2013-04-23 09:41:00,81.1,40.0,29.49,North,359,0.0,-999.0,23,-99.99,,,0.00,weatherlink.com 1.10,2013-04-23 16:41:00,
2013-04-23 09:56:00,81.8,37.0,29.49,North,359,8.0,-999.0,20,-99.99,,,0.00,weatherlink.com 1.10,2013-04-23 16:56:00,
2013-04-23 10:11:00,82.8,34.0,29.49,NNE,31,1.0,-999.0,17,-99.99,,,0.00,weatherlink.com 1.10,2013-04-23 17:11:00,
2013-04-23 10:26:00,84.7,32.0,29.49,NNW,339,11.0,-999.0,15,-99.99,,,0.00,weatherlink.com 1.10,2013-04-23 17:26:00,
2013-04-23 10:41:00,84.1,30.0,29.49,North,357,0.0,-999.0,14,-99.99,,,0.00,weatherlink.com 1.10,2013-04-23 17:41:00,
2013-04-23 10:56:00,85.1,27.0,29.49,NW,315,13.0,-999.0,12,-99.99,,,0.00,weatherlink.com 1.10,2013-04-23 17:56:00,
2013-04-23 11:11:00,85.7,23.0,29.48,SSW,198,7.0,-999.0,10,-99.99,,,0.00,weatherlink.com 1.10,2013-04-23 18:11:00,
2013-04-23 11:26:00,87.2,27.0,29.48,North,356,9.0,-999.0,11,-99.99,,,0.00,weatherlink.com 1.10,2013-04-23 18:26:00,
2013-04-23 11:41:00,87.8,29.0,29.47,North,356,12.0,-999.0,12,-99.99,,,0.00,weatherlink.com 1.10,2013-04-23 18:41:00,
2013-04-23 11:56:00,88.8,28.0,29.47,North,357,7.0,-999.0,11,-99.99,,,0.00,weatherlink.com 1.10,2013-04-23 18:56:00,
2013-04-23 12:11:00,88.4,27.0,29.47,SW,217,3.0,-999.0,11,-99.99,,,0.00,weatherlink.com 1.10,2013-04-23 19:11:00,
2013-04-23 12:26:00,89.5,26.0,29.46,North,357,7.0,-999.0,10,-99.99,,,0.00,weatherlink.com 1.10,2013-04-23 19:26:00,
2013-04-23 12:41:00,90.5,24.0,29.46,North,357,15.0,-999.0,9,-99.99,,,0.00,weatherlink.com 1.10,2013-04-23 19:41:00,
2013-04-23 12:56:00,90.3,27.0,29.45,North,357,8.0,-999.0,10,-99.99,,,0.00,weatherlink.com 1.10,2013-04-23 19:56:00,
2013-04-23 13:11:00,92.1,28.0,29.45,North,356,7.0,-999.0,10,-99.99,,,0.00,weatherlink.com 1.10,2013-04-23 20:11:00,
2013-04-23 13:26:00,91.6,22.0,29.44,NNW,337,6.0,-999.0,8,-99.99,,,0.00,weatherlink.com 1.10,2013-04-23 20:26:00,
2013-04-23 13:41:00,92.7,23.0,29.44,North,357,8.0,-999.0,8,-99.99,,,0.00,weatherlink.com 1.10,2013-04-23 20:41:00,
2013-04-23 13:56:00,93.6,24.0,29.43,North,357,10.0,-999.0,8,-99.99,,,0.00,weatherlink.com 1.10,2013-04-23 20:56:00,
2013-04-23 14:11:00,93.4,24.0,29.43,North,357,12.0,-999.0,8,-99.99,,,0.00,weatherlink.com 1.10,2013-04-23 21:11:00,
2013-04-23 14:26:00,93.2,20.0,29.43,North,357,5.0,-999.0,7,-99.99,,,0.00,weatherlink.com 1.10,2013-04-23 21:26:00,
2013-04-23 14:41:00,93.2,24.0,29.42,North,357,15.0,-999.0,8,-99.99,,,0.00,weatherlink.com 1.10,2013-04-23 21:41:00,
2013-04-23 14:56:00,93.4,24.0,29.41,North,357,11.0,-999.0,8,-99.99,,,0.00,weatherlink.com 1.10,2013-04-23 21:56:00,
2013-04-23 15:11:00,93.2,20.0,29.40,North,357,10.0,-999.0,7,-99.99,,,0.00,weatherlink.com 1.10,2013-04-23 22:11:00,
2013-04-23 15:26:00,93.6,21.0,29.40,North,357,10.0,-999.0,7,-99.99,,,0.00,weatherlink.com 1.10,2013-04-23 22:26:00,
2013-04-23 15:41:00,93.4,20.0,29.39,North,357,13.0,-999.0,7,-99.99,,,0.00,weatherlink.com 1.10,2013-04-23 22:41:00,
2013-04-23 15:56:00,92.7,20.0,29.39,North,356,18.0,-999.0,7,-99.99,,,0.00,weatherlink.com 1.10,2013-04-23 22:56:00,
2013-04-23 16:11:00,92.7,20.0,29.38,North,356,20.0,-999.0,7,-99.99,,,0.00,weatherlink.com 1.10,2013-04-23 23:11:00,
2013-04-23 16:26:00,92.1,20.0,29.38,North,356,11.0,-999.0,7,-99.99,,,0.00,weatherlink.com 1.10,2013-04-23 23:26:00,
2013-04-23 16:41:00,92.3,20.0,29.38,North,357,11.0,-999.0,7,-99.99,,,0.00,weatherlink.com 1.10,2013-04-23 23:41:00,
2013-04-23 16:56:00,91.6,19.0,29.38,North,357,11.0,-999.0,7,-99.99,,,0.00,weatherlink.com 1.10,2013-04-23 23:56:00,
2013-04-23 17:11:00,91.0,19.0,29.38,North,357,7.0,-999.0,7,-99.99,,,0.00,weatherlink.com 1.10,2013-04-24 00:11:00,
2013-04-23 17:26:00,90.5,18.0,29.38,North,357,7.0,-999.0,7,-99.99,,,0.00,weatherlink.com 1.10,2013-04-24 00:26:00,
2013-04-23 17:41:00,90.3,18.0,29.38,North,357,11.0,-999.0,7,-99.99,,,0.00,weatherlink.com 1.10,2013-04-24 00:41:00,
2013-04-23 17:56:00,89.7,18.0,29.38,North,357,7.0,-999.0,7,-99.99,,,0.00,weatherlink.com 1.10,2013-04-24 00:56:00,
2013-04-23 18:11:00,89.0,17.0,29.38,North,357,8.0,-999.0,7,-99.99,,,0.00,weatherlink.com 1.10,2013-04-24 01:11:00,
2013-04-23 18:26:00,88.0,16.0,29.38,North,357,10.0,-999.0,7,-99.99,,,0.00,weatherlink.com 1.10,2013-04-24 01:26:00,
2013-04-23 18:41:00,87.2,16.0,29.39,North,357,12.0,-999.0,7,-99.99,,,0.00,weatherlink.com 1.10,2013-04-24 01:41:00,
2013-04-23 18:56:00,86.1,15.0,29.39,North,356,5.0,-999.0,7,-99.99,,,0.00,weatherlink.com 1.10,2013-04-24 01:56:00,
2013-04-23 19:11:00,85.1,14.0,29.39,North,357,6.0,-999.0,7,-99.99,,,0.00,weatherlink.com 1.10,2013-04-24 02:11:00,
2013-04-23 19:42:00,83.6,13.0,29.40,North,357,4.0,-999.0,7,-99.99,,,0.00,weatherlink.com 1.10,2013-04-24 02:42:00,
2013-04-23 19:57:00,83.2,13.0,29.40,North,359,6.0,-999.0,7,-99.99,,,0.00,weatherlink.com 1.10,2013-04-24 02:57:00,
2013-04-23 20:42:00,82.0,4.0,29.41,North,359,8.0,-999.0,5,-99.99,,,0.00,weatherlink.com 1.10,2013-04-24 03:42:00,
2013-04-23 20:57:00,81.6,4.0,29.42,North,357,7.0,-999.0,5,-99.99,,,0.00,weatherlink.com 1.10,2013-04-24 03:57:00,
2013-04-23 21:12:00,81.2,4.0,29.43,North,359,2.0,-999.0,5,-99.99,,,0.00,weatherlink.com 1.10,2013-04-24 04:12:00,
2013-04-23 21:27:00,80.5,3.0,29.43,North,359,0.0,-999.0,5,-99.99,,,0.00,weatherlink.com 1.10,2013-04-24 04:27:00,
2013-04-23 21:42:00,79.9,3.0,29.44,North,359,0.0,-999.0,5,-99.99,,,0.00,weatherlink.com 1.10,2013-04-24 04:42:00,
2013-04-23 21:57:00,78.6,2.0,29.44,North,357,0.0,-999.0,5,-99.99,,,0.00,weatherlink.com 1.10,2013-04-24 04:57:00,
2013-04-23 22:12:00,77.6,9.0,29.43,North,359,0.0,-999.0,7,-99.99,,,0.00,weatherlink.com 1.10,2013-04-24 05:12:00,
2013-04-23 22:28:00,76.1,16.0,29.44,North,357,0.0,-999.0,10,-99.99,,,0.00,weatherlink.com 1.10,2013-04-24 05:28:00,
2013-04-23 22:42:00,75.1,10.0,29.44,North,357,0.0,-999.0,8,-99.99,,,0.00,weatherlink.com 1.10,2013-04-24 05:42:00,
2013-04-23 22:57:00,74.6,6.0,29.44,North,357,0.0,-999.0,7,-99.99,,,0.00,weatherlink.com 1.10,2013-04-24 05:57:00,
2013-04-23 23:12:00,74.2,3.0,29.44,North,357,0.0,-999.0,6,-99.99,,,0.00,weatherlink.com 1.10,2013-04-24 06:12:00,
2013-04-23 23:27:00,73.9,2.0,29.44,North,357,0.0,-999.0,6,-99.99,,,0.00,weatherlink.com 1.10,2013-04-24 06:27:00,
2013-04-23 23:42:00,72.3,22.0,29.44,North,356,0.0,-999.0,15,-99.99,,,0.00,weatherlink.com 1.10,2013-04-24 06:42:00,
2013-04-23 23:57:00,72.3,1.0,29.44,North,359,0.0,-999.0,6,-99.99,,,0.00,weatherlink.com 1.10,2013-04-24 06:57:00,